User: anonymous   Login
Location: Nantong Television Tower
(32.0188°N, 120.8512°E)
Time: 03:12:01
(UTC+08:00)
Language:

ATLAS 3B CENTAUR R/B - Orbit

View from above orbital plane
View from above orbital plane
View from above satellite
View from above satellite

Ground track
Ground track

The orbit data is extracted from the following two-line orbital elements,

1 28118U 03057B   17050.44210814  .00069033  00000-0  10487-2 0  9995
2 28118  28.1158  78.0673 3133538 116.3108 279.1290  9.20853581278732
Epoch (UTC): 19 February 2017 10:36:38
Eccentricity: 0.3133538
inclination: 28.1158°
perigee height: 224 km
apogee height: 6249 km
right ascension of ascending node: 78.0673°
argument of perigee: 116.3108°
revolutions per day: 9.20853581
mean anomaly at epoch: 279.1290°
orbit number at epoch: 27873

The dashed part of the orbit path shows where the satellite is in the earth's shadow,  

DLR